Location: Herm
(49.4830°N, 2.4500°W)
Time: 16:38:10
(UTC+00:00)

NOAA 15 - Pass Details

Date: 29 October 2021
Orbit: 797 x 813 km, 98.7° (Epoch: 04 December)

Event Time Altitude Azimuth Distance (km) Brightness Sun altitude
Rises 18:38:34 0° 128° (SE) 3,325 7.4 -8.0°
Reaches altitude 10° 18:41:11 10° 117° (ESE) 2,399 6.6 -8.4°
Maximum altitude 18:45:36 27° 60° (ENE) 1,508 5.5 -9.1°
Drops below altitude 10° 18:50:01 10° 4° (N) 2,414 6.9 -9.8°
Sets 18:52:40 0° 353° (N) 3,350 7.8 -10.2°
